Bluefield, WV

1:05 PM EST on November 22, 2019 (GMT -0500)
Mercer County

Weather History for KBLF - October, 2019

Change the Weather History Date:

Thursday, October 24, 2019

  Actual Average Record
Temperature  
Mean Temperature 49 °F 54 °F  
Max Temperature 64 °F 64 °F 80 °F (1921)
Min Temperature 34 °F 45 °F 24 °F (1917)
Degree Days  
Heating Degree Days 16 11  
Month to date heating degree days 224 202  
Since 1 July heating degree days 252 281  
Cooling Degree Days 0 0  
Month to date cooling degree days 32 16  
Year to date cooling degree days 748 848  
Moisture  
Dew Point 31 °F    
Average Humidity 56    
Maximum Humidity 82    
Minimum Humidity 29    
Precipitation  
Precipitation 0.00 in 0.08 in 1.83 in (2007)
Month to date precipitation 4.49 1.93  
Year to date precipitation 33.02 33.46  
Snow  
Snow 0.00 in - - ()
Month to date snowfall 0.0  
Since 1 July snowfall 0.0  
Since 1 September snowfall 0.0  
Snow Depth 0.00 in    
Sea Level Pressure  
Sea Level Pressure 30.28 in    
Wind  
Wind Speed 3 mph (SE)    
Max Wind Speed 10 mph    
Max Gust Speed 17 mph    
Visibility 10 miles    
Events      
T = Trace of Precipitation, MM = Missing Value Source: NWS Daily Summary

Daily Weather History Graph

Daily Weather History Graph

Search for Another Location

Airport or City:

Astronomy

Oct. 24, 2019 Rise Set
Actual Time 7:41 AM EDT 6:36 PM EDT
Civil Twilight 7:14 AM EDT 7:02 PM EDT
Nautical Twilight 6:44 AM EDT 7:33 PM EDT
Astronomical Twilight 6:13 AM EDT 8:03 PM EDT
Moon 3:17 AM EDT (10/24) 4:56 PM EDT (10/24)
Length of Visible Light 11h 48m
Length of Day
10h 55m
Waning Crescent, 17% of the Moon is Illuminated
Oct 24
Waning Crescent
Oct 27
New
Nov 4
First Quarter
Nov 12
Full
Nov 19
Last Quarter

Hourly Weather History & Observations

Time (EDT) Temp. Windchill Dew Point Humidity Pressure Visibility Wind Dir Wind Speed Gust Speed Precip Events Conditions
12:52 AM 43.0 °F - 27.0 °F 53% 30.25 in 10.0 mi Calm Calm - N/A   Clear
1:52 AM 44.1 °F - 25.0 °F 47% 30.25 in 10.0 mi Calm Calm - N/A   Clear
2:52 AM 42.1 °F - 26.1 °F 53% 30.25 in 10.0 mi Calm Calm - N/A   Clear
3:52 AM 37.9 °F 34.4 °F 28.0 °F 68% 30.26 in 10.0 mi ESE 4.6 mph - N/A   Clear
4:52 AM 37.9 °F 35.5 °F 28.0 °F 68% 30.27 in 10.0 mi ESE 3.5 mph - N/A   Clear
5:52 AM 37.9 °F - 28.0 °F 68% 30.28 in 10.0 mi Calm Calm - N/A   Clear
6:52 AM 36.0 °F - 30.0 °F 79% 30.29 in 10.0 mi Calm Calm - N/A   Clear
7:52 AM 35.1 °F 30.1 °F 30.0 °F 82% 30.30 in 10.0 mi SE 5.8 mph - N/A   Clear
8:52 AM 37.0 °F 34.5 °F 32.0 °F 82% 30.32 in 10.0 mi ESE 3.5 mph - N/A   Clear
9:52 AM 46.0 °F 44.8 °F 34.0 °F 63% 30.33 in 10.0 mi North 3.5 mph - N/A   Clear
10:52 AM 52.0 °F - 37.0 °F 57% 30.32 in 10.0 mi North 3.5 mph - N/A   Clear
12:52 PM 59.0 °F - 32.0 °F 36% 30.30 in 10.0 mi Calm Calm - N/A   Clear
1:52 PM 60.1 °F - 34.0 °F 38% 30.26 in 10.0 mi WSW 8.1 mph - N/A   Clear
2:52 PM 62.1 °F - 33.1 °F 34% 30.25 in 10.0 mi Variable 3.5 mph - N/A   Clear
3:52 PM 63.0 °F - 32.0 °F 31% 30.25 in 10.0 mi Variable 5.8 mph - N/A   Clear
4:52 PM 62.1 °F - 30.9 °F 31% 30.25 in 10.0 mi SSW 4.6 mph - N/A   Clear
5:52 PM 61.0 °F - 28.9 °F 30% 30.25 in 10.0 mi Variable 3.5 mph - N/A   Clear
6:52 PM 57.0 °F - 33.1 °F 40% 30.27 in 10.0 mi Variable 3.5 mph - N/A   Clear
7:52 PM 54.0 °F - 34.0 °F 47% 30.29 in 10.0 mi South 3.5 mph - N/A   Clear
8:52 PM 53.1 °F - 35.1 °F 50% 30.30 in 10.0 mi Calm Calm - N/A   Clear
9:52 PM 53.1 °F - 35.1 °F 50% 30.30 in 10.0 mi SSE 4.6 mph - N/A   Clear
10:52 PM 51.1 °F - 35.1 °F 54% 30.30 in 10.0 mi North - - N/A   Clear
11:52 PM 51.1 °F - 34.0 °F 52% 30.28 in 10.0 mi Variable 6.9 mph 17.3 mph N/A   Clear